This demonstration page uses our WeatherBlox Daily Observations layout. Learn more.

Left ArrowRight Arrow

39.51506, -84.39828

Hourly Observations for December 29, 2015

Temp ( °F °C ) Dew Point ( °F °C ) Humidity (%) Winds ( mph kmh ) Pressure ( in mb ) Visibility ( mi km ) Precip ( " mm )
12:15 am 00:15 Cloudy 55 12.6 49 9.7 83 83 WSW 12 19 29.68 1005 10 16 N/A
12:35 am 00:35 Cloudy 55 12.5 48 9.1 80 80 SW 12 19 29.68 1005 10 16 N/A
12:55 am 00:55 Cloudy 55 12.5 48 9 79 79 WSW 12 19 29.68 1005 10 16 N/A
1:15 am 01:15 Mostly Cloudy 55 12.5 48 8.7 78 78 WSW 13 20 29.71 1006 10 16 N/A
1:35 am 01:35 Mostly Cloudy 55 12.5 48 9.1 80 80 WSW 10 17 29.71 1006 10 16 N/A
1:55 am 01:55 Cloudy 55 12.5 48 9 79 79 WSW 12 19 29.71 1006 10 16 N/A
2:15 am 02:15 Cloudy 55 12.5 48 9.1 80 80 SW 12 19 29.74 1007 10 16 N/A
2:35 am 02:35 Cloudy 53 11.6 47 8.4 81 81 SW 10 17 29.77 1008 10 16 N/A
2:55 am 02:55 Cloudy 53 11.6 47 8.5 81 81 WSW 10 17 29.77 1008 10 16 N/A
3:15 am 03:15 Cloudy 52 11 46 7.5 79 79 WSW 13 20 29.80 1009 10 16 N/A
3:35 am 03:35 Cloudy 51 10.4 44 6.6 78 78 WSW 13 20 29.80 1009 10 16 N/A
3:55 am 03:55 Cloudy 51 10.3 43 6.3 76 76 WSW 14 22 29.80 1009 10 16 N/A
4:15 am 04:15 Cloudy 49 9.6 41 4.9 73 73 WSW 17 28 29.83 1010 10 16 N/A
4:35 am 04:35 Mostly Cloudy 49 9.6 40 4.7 72 72 WSW 18 30 29.83 1010 10 16 N/A
4:55 am 04:55 Cloudy 49 9.6 40 4.4 70 70 WSW 17 28 29.83 1010 10 16 N/A
5:15 am 05:15 Cloudy 49 9.6 40 4.4 70 70 WSW 15 24 29.83 1010 10 16 N/A
5:35 am 05:35 Cloudy 49 9.6 40 4.4 70 70 WSW 10 17 29.85 1011 10 16 N/A
5:55 am 05:55 Cloudy 49 9.6 41 4.9 73 73 WSW 10 17 29.85 1011 10 16 N/A
6:15 am 06:15 Cloudy 49 9.6 41 5 73 73 SW 13 20 29.85 1011 10 16 N/A
6:35 am 06:35 Cloudy 49 9.6 41 5.2 74 74 SW 10 17 29.85 1011 10 16 N/A
6:55 am 06:55 Cloudy 49 9.6 41 5.2 74 74 SW 13 20 29.85 1011 10 16 N/A
7:15 am 07:15 Cloudy 49 9.6 40 4.6 71 71 WSW 15 24 29.88 1012 10 16 N/A
7:35 am 07:35 Cloudy 49 9.6 40 4.3 70 70 SW 17 28 29.88 1012 10 16 N/A
7:55 am 07:55 Cloudy 49 9.6 40 4.2 69 69 SW 14 22 29.88 1012 10 16 N/A
8:15 am 08:15 Cloudy 49 9.6 40 4.5 71 71 SW 10 17 29.91 1013 10 16 N/A
8:35 am 08:35 Cloudy 49 9.6 40 4.5 71 71 SW 13 20 29.91 1013 10 16 N/A
8:55 am 08:55 Cloudy 49 9.6 40 4.6 71 71 WSW 14 22 29.91 1013 10 16 N/A
9:15 am 09:15 Cloudy 49 9.6 41 4.8 72 72 WSW 13 20 29.94 1014 10 16 N/A
9:35 am 09:35 Cloudy with Haze 49 9.4 42 5.7 78 78 WSW 18 30 29.94 1014 5 8 N/A
9:55 am 09:55 Cloudy with Drizzle 44 6.6 40 4.2 85 85 W 21 33 29.97 1015 3 5 N/A
10:15 am 10:15 Cloudy 44 6.6 39 3.9 83 83 WSW 20 31 30.00 1016 7 11 N/A
10:35 am 10:35 Cloudy 45 7.4 39 3.9 79 79 WSW 16 26 30.00 1016 10 16 N/A
10:55 am 10:55 Cloudy 45 7 37 2.5 73 73 W 21 33 30.00 1016 10 16 N/A
11:15 am 11:15 Cloudy 45 7.4 37 2.6 72 72 WSW 14 22 30.03 1017 10 16 N/A
11:35 am 11:35 Cloudy 44 6.8 35 1.8 71 71 WSW 22 35 30.03 1017 10 16 N/A
11:55 am 11:55 Cloudy 44 6.4 34 1 69 69 WSW 17 28 30.03 1017 10 16 N/A
12:15 pm 12:15 Cloudy 43 6.1 34 1 70 70 WSW 17 28 30.03 1017 10 16 N/A
12:35 pm 12:35 Cloudy 43 6.1 33 0.5 68 68 W 21 33 30.03 1017 10 16 N/A
12:55 pm 12:55 Cloudy 42 5.8 33 0.8 71 71 W 13 20 30.06 1018 10 16 N/A
1:15 pm 13:15 Cloudy 42 5.8 32 0.2 68 68 W 17 28 30.06 1018 10 16 N/A
1:35 pm 13:35 Cloudy 43 6.1 32 0.1 66 66 WSW 16 26 30.06 1018 10 16 N/A
1:55 pm 13:55 Cloudy 43 5.9 32 undefined 66 66 WSW 16 26 30.06 1018 10 16 N/A
2:15 pm 14:15 Cloudy 43 5.9 32 0.2 67 67 W 12 19 30.06 1018 10 16 N/A
2:35 pm 14:35 Cloudy 42 5.8 32 0.1 67 67 W 14 22 30.06 1018 10 16 N/A
2:55 pm 14:55 Cloudy 42 5.7 32 -0.2 66 66 W 15 24 30.09 1019 10 16 N/A
3:15 pm 15:15 Cloudy 42 5.8 32 -0.1 66 66 W 13 20 30.09 1019 10 16 N/A
3:35 pm 15:35 Cloudy 42 5.8 32 -0.1 66 66 WSW 14 22 30.09 1019 10 16 N/A
3:55 pm 15:55 Cloudy 42 5.5 31 -0.3 67 67 WSW 12 19 30.12 1020 10 16 N/A
4:15 pm 16:15 Cloudy 42 5.5 32 -0.1 68 68 W 12 19 30.12 1020 10 16 N/A
4:35 pm 16:35 Cloudy 42 5.5 32 undefined 68 68 WSW 9 15 30.12 1020 10 16 N/A
4:55 pm 16:55 Cloudy 42 5.5 32 undefined 68 68 W 7 11 30.12 1020 10 16 N/A
5:15 pm 17:15 Cloudy 42 5.5 32 -0.1 68 68 W 9 15 30.15 1021 10 16 N/A
5:35 pm 17:35 Cloudy 42 5.5 32 undefined 68 68 WSW 9 15 30.15 1021 10 16 N/A
5:55 pm 17:55 Cloudy 42 5.5 32 undefined 68 68 W 10 17 30.15 1021 10 16 N/A
6:15 pm 18:15 Cloudy 42 5.5 32 undefined 68 68 W 7 11 30.15 1021 10 16 N/A
6:35 pm 18:35 Cloudy 41 5 32 -0.1 70 70 W 6 9 30.21 1023 10 16 N/A
6:55 pm 18:55 Cloudy 40 4.7 32 -0.1 71 71 W 5 7 30.21 1023 10 16 N/A
7:15 pm 19:15 Cloudy 40 4.7 32 undefined 72 72 W 6 9 30.21 1023 10 16 N/A
7:35 pm 19:35 Cloudy 40 4.7 32 undefined 72 72 W 3 6 30.21 1023 10 16 N/A
7:55 pm 19:55 Cloudy 40 4.7 32 undefined 72 72 WSW 5 7 30.21 1023 10 16 N/A
8:15 pm 20:15 Cloudy 40 4.7 32 undefined 72 72 N N/A 30.21 1023 10 16 N/A
8:35 pm 20:35 Cloudy 40 4.7 32 undefined 72 72 W 5 7 30.21 1023 10 16 N/A
8:55 pm 20:55 Cloudy 40 4.7 32 undefined 72 72 W 6 9 30.24 1024 10 16 N/A
9:15 pm 21:15 Cloudy 40 4.7 32 undefined 72 72 W 3 6 30.24 1024 10 16 N/A
9:35 pm 21:35 Cloudy 40 4.7 32 -0.2 71 71 N N/A 30.21 1023 10 16 N/A
9:55 pm 21:55 Cloudy 40 4.6 32 -0.1 72 72 W 5 7 30.21 1023 10 16 N/A
10:15 pm 22:15 Cloudy 40 4.7 32 undefined 72 72 W 5 7 30.24 1024 10 16 N/A
10:35 pm 22:35 Cloudy 40 4.5 32 -0.1 72 72 W 3 6 30.24 1024 10 16 N/A
10:55 pm 22:55 Cloudy 40 4.5 31 -0.3 71 71 W 3 6 30.24 1024 10 16 N/A
11:15 pm 23:15 Cloudy 39 4 32 undefined 75 75 N N/A 30.24 1024 10 16 N/A
11:35 pm 23:35 Cloudy 39 4 32 0.1 76 76 N 5 7 30.24 1024 10 16 N/A
11:55 pm 23:55 Cloudy 39 4 33 0.3 77 77 NNE 3 6 30.24 1024 10 16 N/A

Powered by AerisWeather